Weather History for False Pass, AK

Change the Weather History Date:

Wednesday, November 28, 2012

  Actual Average (PACD) Record (PACD)
Temperature  
Mean Temperature 37 °F 33 °F  
Max Temperature 39 °F 37 °F 50 °F (2004)
Min Temperature 33 °F 29 °F 1 °F (1963)
Degree Days  
Heating Degree Days 28 32  
Month to date heating degree days 849  
Since 1 July heating degree days 2962  
Cooling Degree Days 0    
Month to date cooling degree days  
Year to date cooling degree days  
Moisture  
Dew Point 30 °F    
Average Humidity 75    
Maximum Humidity 87    
Minimum Humidity 65    
Precipitation  
Precipitation 0.00 in 0.17 in 0.82 in (2007)
Month to date precipitation 4.65  
Year to date precipitation 36.88  
Snow  
Snow 0.00 in 0.50 in 3.20 in (1998)
Month to date snowfall 9.4  
Since 1 July snowfall 11.8  
Since 1 September snowfall 11.8  
Snow Depth -    
Sea Level Pressure  
Sea Level Pressure 30.19 in    
Wind  
Wind Speed 19 mph (West)    
Max Wind Speed 29 mph    
Max Gust Speed 51 mph    
Visibility 10 miles    
Events Rain    
T = Trace of Precipitation, MM = Missing Value Source: NWS Daily Summary

Daily Weather History Graph

Daily Weather History Graph

Search for Another Location

Airport:

Trip Planner

Search our weather history database for the weather conditions in past years. The results will help you decide how hot, cold, wet, or windy it might be!

Date:

Astronomy

Nov. 28, 2012 Rise Set
Actual Time 8:50 AM HAST 4:33 PM HAST
Civil Twilight 8:07 AM HAST 5:16 PM HAST
Nautical Twilight 7:21 AM HAST 6:02 PM HAST
Astronomical Twilight 6:37 AM HAST 6:45 PM HAST
Moon 4:56 PM HAST (11/28) 8:59 AM HAST (11/28)
Length of Visible Light 9h 09m
Length of Day
7h 42m
Full, 100% of the Moon is Illuminated
Nov 28
Full
Dec 6
Last Quarter
Dec 12
New
Dec 19
First Quarter
Dec 28
Full

Hourly Weather History & Observations

Time (HAST) Temp. Windchill Dew Point Humidity Pressure Visibility Wind Dir Wind Speed Gust Speed Precip Events Conditions
12:01 AM 39.2 °F 30.8 °F 32.0 °F 75% 30.05 in 10.0 mi West 15.0 mph 21.9 mph 0.00 in   Overcast
12:08 AM 37.9 °F 28.5 °F 32.0 °F 79% 30.34 in 10.0 mi West 17.3 mph 24.2 mph 0.00 in   Overcast
12:15 AM 39.2 °F 30.8 °F 32.0 °F 75% 30.05 in 10.0 mi West 15.0 mph - N/A   Overcast
12:41 AM 39.2 °F 29.3 °F 33.8 °F 81% 30.03 in 10.0 mi WSW 20.7 mph 32.2 mph N/A   Mostly Cloudy
1:01 AM 39.9 °F 30.2 °F 33.1 °F 77% 30.31 in 10.0 mi West 20.7 mph 31.1 mph N/A   Partly Cloudy
1:47 AM 39.2 °F 28.7 °F 33.8 °F 81% 30.03 in 9.0 mi West 23.0 mph 33.4 mph N/A   Partly Cloudy
2:01 AM 39.9 °F 30.8 °F 33.1 °F 77% 30.32 in 10.0 mi WSW 18.4 mph 32.2 mph N/A   Partly Cloudy
2:15 AM 39.2 °F 30.2 °F 33.8 °F 81% 30.04 in 10.0 mi West 17.3 mph 33.4 mph N/A   Mostly Cloudy
2:47 AM 39.2 °F 29.3 °F 33.8 °F 81% 30.04 in 9.0 mi West 20.7 mph 35.7 mph N/A   Mostly Cloudy
3:01 AM 39.0 °F 30.6 °F 33.1 °F 79% 30.33 in 10.0 mi WNW 15.0 mph 33.4 mph N/A   Mostly Cloudy
3:14 AM 39.2 °F 30.5 °F 33.8 °F 81% 30.05 in 10.0 mi West 16.1 mph 28.8 mph N/A   Overcast
3:21 AM 39.2 °F 29.6 °F 33.8 °F 81% 30.05 in 10.0 mi West 19.6 mph 28.8 mph N/A   Overcast
3:32 AM 37.4 °F 25.2 °F 33.8 °F 87% 30.04 in 10.0 mi West 28.8 mph 38.0 mph N/A   Overcast
4:01 AM 39.0 °F 29.0 °F 32.0 °F 76% 30.34 in 10.0 mi West 20.7 mph 34.5 mph N/A   Partly Cloudy
5:01 AM 37.9 °F 29.6 °F 30.0 °F 73% 30.34 in 10.0 mi West 13.8 mph 21.9 mph N/A   Clear
6:01 AM 37.9 °F 28.9 °F 30.0 °F 73% 30.33 in 10.0 mi West 16.1 mph 32.2 mph N/A   Clear
7:01 AM 37.9 °F 28.2 °F 30.0 °F 73% 30.34 in 10.0 mi West 18.4 mph 28.8 mph N/A   Clear
9:01 AM 39.0 °F 29.6 °F 30.9 °F 73% 30.34 in 10.0 mi West 18.4 mph 33.4 mph N/A   Partly Cloudy
10:01 AM 39.9 °F 30.0 °F 30.0 °F 68% 30.32 in 10.0 mi West 21.9 mph 29.9 mph N/A   Clear
11:01 AM 39.9 °F 29.7 °F 28.9 °F 65% 30.30 in 10.0 mi West 23.0 mph 42.6 mph N/A   Partly Cloudy
12:01 PM 39.0 °F 28.5 °F 28.9 °F 67% 30.29 in 10.0 mi West 23.0 mph 35.7 mph N/A   Clear
1:01 PM 39.0 °F 29.0 °F 30.0 °F 70% 30.27 in 10.0 mi WSW 20.7 mph 29.9 mph N/A   Clear
3:01 PM 36.0 °F 26.7 °F 28.9 °F 76% 30.27 in 10.0 mi West 15.0 mph 42.6 mph 0.00 in   Clear
3:37 PM 35.6 °F 26.2 °F 28.4 °F 75% 29.98 in 10.0 mi West 15.0 mph 36.8 mph 0.00 in Rain Light Rain
4:01 PM 36.0 °F 25.0 °F 28.9 °F 76% 30.27 in 10.0 mi WNW 20.7 mph 34.5 mph 0.00 in   Overcast
5:01 PM 36.0 °F 25.3 °F 28.0 °F 73% 30.27 in 10.0 mi West 19.6 mph 50.6 mph 0.00 in   Mostly Cloudy
5:33 PM 35.6 °F 24.5 °F 28.4 °F 75% 29.99 in 10.0 mi West 20.7 mph 44.9 mph 0.00 in   Scattered Clouds
5:59 PM 35.6 °F 24.2 °F 28.4 °F 75% 29.99 in 10.0 mi West 21.9 mph 43.7 mph 0.00 in   Mostly Cloudy
6:01 PM 36.0 °F 24.7 °F 28.0 °F 73% 30.29 in 10.0 mi West 21.9 mph 43.7 mph 0.00 in   Mostly Cloudy
6:39 PM 35.6 °F 23.7 °F 26.6 °F 70% 30.00 in 10.0 mi WNW 24.2 mph 35.7 mph N/A   Scattered Clouds
7:01 PM 36.0 °F 25.0 °F 26.1 °F 67% 30.29 in 10.0 mi West 20.7 mph 34.5 mph N/A   Clear
9:01 PM 35.1 °F 24.1 °F 27.0 °F 72% 30.27 in 10.0 mi West 19.6 mph 32.2 mph N/A   Clear
10:01 PM 35.1 °F 24.5 °F 27.0 °F 72% 30.26 in 10.0 mi WNW 18.4 mph 32.2 mph N/A   Partly Cloudy
11:01 PM 35.1 °F 23.8 °F 28.0 °F 76% 30.25 in 10.0 mi WNW 20.7 mph 33.4 mph N/A   Scattered Clouds
11:29 PM 33.8 °F 21.6 °F 26.6 °F 75% 29.95 in 10.0 mi West 23.0 mph 36.8 mph N/A   Mostly Cloudy